Time,TemperatureF,DewpointF,PressureIn,WindDirection,WindDirectionDegrees,WindSpeedMPH,WindSpeedGustMPH,Humidity,HourlyPrecipIn,Conditions,Clouds,dailyrainin,SoftwareType,DateUTC
2013-02-19 00:00:00,33.6,24.9,29.92,ESE,119,3.0,4.0,70,0.00,,---,0.00,VWS V14.01,2013-02-19 05:00:00,
2013-02-19 00:02:00,33.6,24.9,29.92,SE,134,2.0,4.0,70,0.00,,---,0.00,VWS V14.01,2013-02-19 05:02:00,
2013-02-19 00:08:00,33.6,24.9,29.92,ESE,122,2.0,4.0,70,0.00,,---,0.00,VWS V14.01,2013-02-19 05:08:00,
2013-02-19 00:14:00,33.7,25.0,29.91,ESE,121,0.0,4.0,70,0.00,,---,0.00,VWS V14.01,2013-02-19 05:14:00,
2013-02-19 00:17:00,33.8,25.1,29.91,ESE,107,2.0,4.0,70,0.00,,---,0.00,VWS V14.01,2013-02-19 05:17:00,
2013-02-19 00:23:00,33.9,25.2,29.91,ESE,115,1.0,4.0,70,0.00,,---,0.00,VWS V14.01,2013-02-19 05:23:00,
2013-02-19 00:25:00,33.8,25.4,29.90,SE,141,2.0,4.0,71,0.00,,---,0.00,VWS V14.01,2013-02-19 05:25:00,
2013-02-19 00:30:00,33.9,25.8,29.90,SSE,153,1.0,4.0,72,0.00,,---,0.00,VWS V14.01,2013-02-19 05:30:00,
2013-02-19 00:31:00,33.9,25.8,29.90,SSE,153,3.0,4.0,72,0.00,,---,0.00,VWS V14.01,2013-02-19 05:31:00,
2013-02-19 00:37:00,34.1,26.0,29.90,ESE,123,3.0,6.0,72,0.00,,---,0.00,VWS V14.01,2013-02-19 05:37:00,
2013-02-19 00:43:00,34.4,26.0,29.90,ESE,117,3.0,6.0,71,0.00,,---,0.00,VWS V14.01,2013-02-19 05:43:00,
2013-02-19 00:49:00,34.8,26.4,29.89,SE,142,4.0,6.0,71,0.00,,---,0.00,VWS V14.01,2013-02-19 05:49:00,
2013-02-19 00:55:00,35.3,26.5,29.89,ESE,113,2.0,7.0,70,0.00,,---,0.00,VWS V14.01,2013-02-19 05:55:00,
2013-02-19 01:00:00,35.6,26.8,29.88,ESE,120,2.0,7.0,70,0.00,,---,0.00,VWS V14.01,2013-02-19 06:00:00,
2013-02-19 01:01:00,35.6,26.8,29.88,ESE,119,2.0,7.0,70,0.00,,---,0.00,VWS V14.01,2013-02-19 06:01:00,
2013-02-19 01:07:00,35.7,26.9,29.88,ESE,121,2.0,4.0,70,0.00,,---,0.00,VWS V14.01,2013-02-19 06:07:00,
2013-02-19 01:13:00,35.9,26.7,29.88,SE,131,2.0,4.0,69,0.00,,---,0.00,VWS V14.01,2013-02-19 06:13:00,
2013-02-19 01:19:00,35.9,26.7,29.89,SE,128,3.0,5.0,69,0.00,,---,0.00,VWS V14.01,2013-02-19 06:19:00,
2013-02-19 01:26:00,35.9,26.7,29.88,ESE,123,1.0,6.0,69,0.00,,---,0.00,VWS V14.01,2013-02-19 06:26:00,
2013-02-19 01:30:00,35.9,26.7,29.87,SE,136,2.0,6.0,69,0.00,,---,0.00,VWS V14.01,2013-02-19 06:30:00,
2013-02-19 01:32:00,35.9,26.7,29.87,SE,136,2.0,3.0,69,0.00,,---,0.00,VWS V14.01,2013-02-19 06:32:00,
2013-02-19 01:38:00,35.8,26.6,29.87,ESE,103,3.0,4.0,69,0.00,,---,0.00,VWS V14.01,2013-02-19 06:38:00,
2013-02-19 01:44:00,35.8,26.6,29.87,SE,137,3.0,4.0,69,0.00,,---,0.00,VWS V14.01,2013-02-19 06:44:00,
2013-02-19 01:50:00,35.9,26.7,29.86,SE,126,2.0,4.0,69,0.00,,---,0.00,VWS V14.01,2013-02-19 06:50:00,
2013-02-19 01:57:00,36.0,26.8,29.86,SE,137,2.0,7.0,69,0.00,,---,0.00,VWS V14.01,2013-02-19 06:57:00,
2013-02-19 02:00:00,36.2,26.7,29.85,SE,126,4.0,10.0,68,0.00,,---,0.00,VWS V14.01,2013-02-19 07:00:00,
2013-02-19 02:03:00,36.2,26.7,29.85,SE,134,3.0,4.0,68,0.00,,---,0.00,VWS V14.01,2013-02-19 07:03:00,
2013-02-19 02:09:00,36.3,26.8,29.85,ESE,120,2.0,6.0,68,0.00,,---,0.00,VWS V14.01,2013-02-19 07:09:00,
2013-02-19 02:16:00,36.4,26.5,29.84,SE,134,4.0,6.0,67,0.00,,---,0.00,VWS V14.01,2013-02-19 07:16:00,
2013-02-19 02:22:00,36.6,26.7,29.84,ESE,122,3.0,7.0,67,0.00,,---,0.00,VWS V14.01,2013-02-19 07:22:00,
2013-02-19 02:28:00,36.7,26.8,29.84,SE,132,5.0,7.0,67,0.00,,---,0.00,VWS V14.01,2013-02-19 07:28:00,
2013-02-19 02:30:00,36.8,26.9,29.84,East,98,4.0,7.0,67,0.00,,---,0.00,VWS V14.01,2013-02-19 07:30:00,
2013-02-19 02:34:00,36.9,27.0,29.83,SSE,162,2.0,5.0,67,0.00,,---,0.00,VWS V14.01,2013-02-19 07:34:00,
2013-02-19 02:40:00,37.1,26.8,29.83,ESE,118,3.0,6.0,66,0.00,,---,0.00,VWS V14.01,2013-02-19 07:40:00,
2013-02-19 02:46:00,37.4,26.7,29.82,SE,140,4.0,7.0,65,0.00,,---,0.00,VWS V14.01,2013-02-19 07:46:00,
2013-02-19 02:52:00,37.5,26.8,29.81,South,188,5.0,7.0,65,0.00,,---,0.00,VWS V14.01,2013-02-19 07:52:00,
2013-02-19 02:58:00,37.7,27.0,29.82,WSW,250,2.0,7.0,65,0.00,,---,0.00,VWS V14.01,2013-02-19 07:58:00,
2013-02-19 03:00:00,37.7,27.0,29.82,SE,133,1.0,7.0,65,0.00,,---,0.00,VWS V14.01,2013-02-19 08:00:00,
2013-02-19 03:04:00,37.7,27.0,29.82,SSE,153,3.0,5.0,65,0.00,,---,0.00,VWS V14.01,2013-02-19 08:04:00,
2013-02-19 03:10:00,37.6,26.9,29.82,South,182,2.0,6.0,65,0.00,,---,0.00,VWS V14.01,2013-02-19 08:10:00,
2013-02-19 03:16:00,37.7,27.0,29.81,SSE,161,1.0,7.0,65,0.00,,---,0.00,VWS V14.01,2013-02-19 08:16:00,
2013-02-19 03:22:00,37.7,27.0,29.81,SE,146,3.0,7.0,65,0.00,,---,0.00,VWS V14.01,2013-02-19 08:22:00,
2013-02-19 03:29:00,37.7,27.0,29.80,SSE,150,1.0,7.0,65,0.00,,---,0.00,VWS V14.01,2013-02-19 08:29:00,
2013-02-19 03:30:00,37.7,27.0,29.80,SSE,153,2.0,7.0,65,0.00,,---,0.00,VWS V14.01,2013-02-19 08:30:00,
2013-02-19 03:35:00,37.7,27.0,29.80,SSE,147,2.0,6.0,65,0.00,,---,0.00,VWS V14.01,2013-02-19 08:35:00,
2013-02-19 03:41:00,37.8,27.1,29.80,WSW,238,0.0,6.0,65,0.00,,---,0.00,VWS V14.01,2013-02-19 08:41:00,
2013-02-19 03:47:00,37.9,26.8,29.80,SW,217,2.0,12.0,64,0.00,,---,0.00,VWS V14.01,2013-02-19 08:47:00,
2013-02-19 03:53:00,37.9,26.8,29.81,SSW,192,4.0,12.0,64,0.00,,---,0.00,VWS V14.01,2013-02-19 08:53:00,
2013-02-19 03:59:00,38.6,27.9,29.81,SW,232,23.0,30.0,65,0.00,,---,0.00,VWS V14.01,2013-02-19 08:59:00,
2013-02-19 04:05:00,37.7,30.8,29.81,SSW,196,1.0,30.0,76,0.01,,---,0.01,VWS V14.01,2013-02-19 09:05:00,
2013-02-19 04:11:00,36.5,30.9,29.81,SW,222,4.0,30.0,80,0.01,,---,0.01,VWS V14.01,2013-02-19 09:11:00,
2013-02-19 04:18:00,35.6,31.0,29.81,West,277,3.0,30.0,83,0.02,,---,0.02,VWS V14.01,2013-02-19 09:18:00,
2013-02-19 04:24:00,34.6,30.6,29.80,SSW,200,1.0,30.0,85,0.02,,---,0.02,VWS V14.01,2013-02-19 09:24:00,
2013-02-19 04:30:00,34.1,30.4,29.79,SSW,199,0.0,30.0,86,0.02,,---,0.02,VWS V14.01,2013-02-19 09:30:00,
2013-02-19 04:37:00,33.6,30.1,29.78,SE,129,1.0,3.0,87,0.03,,---,0.03,VWS V14.01,2013-02-19 09:37:00,
2013-02-19 04:43:00,33.3,29.9,29.78,SE,129,0.0,3.0,87,0.03,,---,0.03,VWS V14.01,2013-02-19 09:43:00,
2013-02-19 04:49:00,33.1,29.9,29.77,SE,127,2.0,3.0,88,0.04,,---,0.04,VWS V14.01,2013-02-19 09:49:00,
2013-02-19 04:55:00,33.0,30.1,29.77,SE,130,2.0,5.0,89,0.05,,---,0.05,VWS V14.01,2013-02-19 09:55:00,
2013-02-19 05:00:00,32.9,30.0,29.77,ESE,112,3.0,5.0,89,0.05,,---,0.05,VWS V14.01,2013-02-19 10:00:00,
2013-02-19 05:01:00,32.9,30.0,29.77,ESE,111,3.0,5.0,89,0.05,,---,0.05,VWS V14.01,2013-02-19 10:01:00,
2013-02-19 05:07:00,32.9,30.3,29.76,SE,138,2.0,4.0,90,0.03,,---,0.05,VWS V14.01,2013-02-19 10:07:00,
2013-02-19 05:13:00,32.9,30.3,29.75,SE,137,2.0,4.0,90,0.04,,---,0.06,VWS V14.01,2013-02-19 10:13:00,
2013-02-19 05:19:00,33.0,30.4,29.75,ESE,107,1.0,4.0,90,0.04,,---,0.06,VWS V14.01,2013-02-19 10:19:00,
2013-02-19 05:26:00,33.1,30.8,29.74,East,82,1.0,5.0,91,0.05,,---,0.07,VWS V14.01,2013-02-19 10:26:00,
2013-02-19 05:30:00,33.2,30.9,29.75,SE,133,1.0,5.0,91,0.05,,---,0.07,VWS V14.01,2013-02-19 10:30:00,
2013-02-19 05:32:00,33.2,30.9,29.75,SE,133,1.0,5.0,91,0.05,,---,0.07,VWS V14.01,2013-02-19 10:32:00,
2013-02-19 05:38:00,33.3,31.0,29.74,ESE,109,2.0,5.0,91,0.06,,---,0.08,VWS V14.01,2013-02-19 10:38:00,
2013-02-19 05:44:00,33.4,31.1,29.73,SSE,161,2.0,7.0,91,0.07,,---,0.09,VWS V14.01,2013-02-19 10:44:00,
2013-02-19 05:50:00,33.5,31.4,29.73,East,96,3.0,7.0,92,0.07,,---,0.09,VWS V14.01,2013-02-19 10:50:00,
2013-02-19 05:56:00,33.7,31.6,29.72,SE,140,2.0,10.0,92,0.08,,---,0.10,VWS V14.01,2013-02-19 10:56:00,
2013-02-19 06:00:00,33.8,31.7,29.71,West,265,6.0,10.0,92,0.09,,---,0.11,VWS V14.01,2013-02-19 11:00:00,
2013-02-19 06:02:00,33.7,31.6,29.72,West,268,9.0,11.0,92,0.06,,---,0.11,VWS V14.01,2013-02-19 11:02:00,
2013-02-19 06:09:00,33.8,31.7,29.71,ESE,123,2.0,11.0,92,0.07,,---,0.12,VWS V14.01,2013-02-19 11:09:00,
2013-02-19 06:15:00,33.8,31.7,29.71,SSE,150,0.0,11.0,92,0.08,,---,0.13,VWS V14.01,2013-02-19 11:15:00,
2013-02-19 06:21:00,33.8,31.7,29.70,East,83,1.0,11.0,92,0.09,,---,0.14,VWS V14.01,2013-02-19 11:21:00,
2013-02-19 06:27:00,33.9,31.8,29.71,ENE,65,7.0,11.0,92,0.10,,---,0.15,VWS V14.01,2013-02-19 11:27:00,
2013-02-19 06:30:00,34.0,31.9,29.71,SSE,164,2.0,11.0,92,0.10,,---,0.15,VWS V14.01,2013-02-19 11:30:00,
2013-02-19 06:33:00,34.1,32.0,29.71,ESE,102,3.0,6.0,92,0.08,,---,0.15,VWS V14.01,2013-02-19 11:33:00,
2013-02-19 06:40:00,34.3,32.2,29.70,SE,142,3.0,6.0,92,0.09,,---,0.16,VWS V14.01,2013-02-19 11:40:00,
2013-02-19 06:46:00,34.3,32.2,29.70,SE,135,3.0,9.0,92,0.11,,---,0.18,VWS V14.01,2013-02-19 11:46:00,
2013-02-19 06:52:00,34.2,32.1,29.70,SE,126,2.0,9.0,92,0.12,,---,0.19,VWS V14.01,2013-02-19 11:52:00,
2013-02-19 06:58:00,34.3,32.2,29.70,East,94,3.0,10.0,92,0.12,,---,0.19,VWS V14.01,2013-02-19 11:58:00,
2013-02-19 07:00:00,34.3,32.2,29.69,SSE,163,3.0,10.0,92,0.13,,---,0.20,VWS V14.01,2013-02-19 12:00:00,
2013-02-19 07:04:00,34.4,32.3,29.69,SW,218,0.0,11.0,92,0.10,,---,0.21,VWS V14.01,2013-02-19 12:04:00,
2013-02-19 07:10:00,34.3,32.2,29.69,SSW,200,1.0,11.0,92,0.11,,---,0.22,VWS V14.01,2013-02-19 12:10:00,
2013-02-19 07:16:00,34.2,32.1,29.69,South,169,1.0,11.0,92,0.12,,---,0.23,VWS V14.01,2013-02-19 12:16:00,
2013-02-19 07:22:00,34.2,32.1,29.69,SSE,156,1.0,11.0,92,0.12,,---,0.23,VWS V14.01,2013-02-19 12:22:00,
2013-02-19 07:28:00,34.2,32.1,29.69,SSW,202,1.0,11.0,92,0.13,,---,0.24,VWS V14.01,2013-02-19 12:28:00,
2013-02-19 07:30:00,34.2,32.1,29.69,SW,227,2.0,11.0,92,0.13,,---,0.24,VWS V14.01,2013-02-19 12:30:00,
2013-02-19 07:34:00,34.2,32.1,29.68,SE,144,1.0,10.0,92,0.09,,---,0.24,VWS V14.01,2013-02-19 12:34:00,
2013-02-19 07:40:00,34.2,32.1,29.68,ESE,113,3.0,10.0,92,0.10,,---,0.25,VWS V14.01,2013-02-19 12:40:00,
2013-02-19 07:46:00,34.1,32.0,29.68,South,191,4.0,10.0,92,0.10,,---,0.25,VWS V14.01,2013-02-19 12:46:00,
2013-02-19 07:53:00,34.4,32.3,29.68,ESE,118,1.0,10.0,92,0.11,,---,0.26,VWS V14.01,2013-02-19 12:53:00,
2013-02-19 07:59:00,34.4,32.3,29.68,SW,233,0.0,10.0,92,0.11,,---,0.26,VWS V14.01,2013-02-19 12:59:00,
2013-02-19 08:00:00,34.4,32.3,29.68,South,169,2.0,10.0,92,0.11,,---,0.26,VWS V14.01,2013-02-19 13:00:00,
2013-02-19 08:05:00,34.4,32.3,29.67,SE,134,1.0,4.0,92,0.07,,---,0.27,VWS V14.01,2013-02-19 13:05:00,
2013-02-19 08:11:00,34.4,32.3,29.67,SW,218,2.0,11.0,92,0.07,,---,0.27,VWS V14.01,2013-02-19 13:11:00,
2013-02-19 08:17:00,34.4,32.3,29.67,SW,217,5.0,11.0,92,0.08,,---,0.28,VWS V14.01,2013-02-19 13:17:00,
2013-02-19 08:23:00,34.5,32.4,29.67,ENE,72,1.0,11.0,92,0.08,,---,0.28,VWS V14.01,2013-02-19 13:23:00,
2013-02-19 08:30:00,34.6,32.5,29.66,SE,142,3.0,11.0,92,0.09,,---,0.29,VWS V14.01,2013-02-19 13:30:00,
2013-02-19 08:36:00,34.7,32.9,29.67,SSW,212,4.0,4.0,93,0.06,,---,0.30,VWS V14.01,2013-02-19 13:36:00,
2013-02-19 08:42:00,34.9,33.1,29.66,South,184,5.0,9.0,93,0.07,,---,0.31,VWS V14.01,2013-02-19 13:42:00,
2013-02-19 08:48:00,35.1,33.3,29.66,SSW,209,2.0,12.0,93,0.07,,---,0.31,VWS V14.01,2013-02-19 13:48:00,
2013-02-19 08:55:00,35.2,33.4,29.66,South,184,7.0,12.0,93,0.07,,---,0.31,VWS V14.01,2013-02-19 13:55:00,
2013-02-19 09:01:00,35.7,33.9,29.66,SW,216,7.0,16.0,93,0.07,,---,0.31,VWS V14.01,2013-02-19 14:01:00,
2013-02-19 09:07:00,35.6,33.8,29.65,West,279,2.0,16.0,93,0.08,,---,0.32,VWS V14.01,2013-02-19 14:07:00,
2013-02-19 09:13:00,35.9,34.1,29.65,WNW,296,3.0,16.0,93,0.09,,---,0.33,VWS V14.01,2013-02-19 14:13:00,
2013-02-19 09:19:00,35.9,33.8,29.64,SW,226,3.0,16.0,92,0.09,,---,0.33,VWS V14.01,2013-02-19 14:19:00,
2013-02-19 09:25:00,36.0,33.9,29.65,South,184,1.0,16.0,92,0.09,,---,0.33,VWS V14.01,2013-02-19 14:25:00,
2013-02-19 09:30:00,35.9,33.8,29.63,SSE,165,2.0,16.0,92,0.09,,---,0.33,VWS V14.01,2013-02-19 14:30:00,
2013-02-19 09:31:00,35.9,33.8,29.63,SE,138,3.0,16.0,92,0.09,,---,0.33,VWS V14.01,2013-02-19 14:31:00,
2013-02-19 09:37:00,36.0,33.9,29.63,SW,219,0.0,10.0,92,0.04,,---,0.33,VWS V14.01,2013-02-19 14:37:00,
2013-02-19 09:43:00,35.9,33.8,29.63,NE,41,2.0,12.0,92,0.05,,---,0.34,VWS V14.01,2013-02-19 14:43:00,
2013-02-19 09:49:00,35.9,33.8,29.62,South,182,5.0,12.0,92,0.05,,---,0.34,VWS V14.01,2013-02-19 14:49:00,
2013-02-19 09:56:00,36.0,33.9,29.63,South,182,4.0,12.0,92,0.05,,---,0.34,VWS V14.01,2013-02-19 14:56:00,
2013-02-19 10:00:00,36.0,33.9,29.62,SW,218,2.0,12.0,92,0.05,,---,0.34,VWS V14.01,2013-02-19 15:00:00,
2013-02-19 10:02:00,36.0,33.9,29.62,SW,218,2.0,12.0,92,0.05,,---,0.34,VWS V14.01,2013-02-19 15:02:00,
2013-02-19 10:08:00,35.9,33.8,29.61,WSW,252,3.0,7.0,92,0.01,,---,0.34,VWS V14.01,2013-02-19 15:08:00,
2013-02-19 10:14:00,36.1,34.0,29.61,SSW,206,2.0,14.0,92,0.01,,---,0.34,VWS V14.01,2013-02-19 15:14:00,
2013-02-19 10:20:00,36.1,34.0,29.61,SW,234,5.0,14.0,92,0.02,,---,0.35,VWS V14.01,2013-02-19 15:20:00,
2013-02-19 10:26:00,36.4,34.3,29.61,SSW,211,2.0,14.0,92,0.02,,---,0.35,VWS V14.01,2013-02-19 15:26:00,
2013-02-19 10:30:00,36.5,34.4,29.62,SW,226,4.0,14.0,92,0.02,,---,0.35,VWS V14.01,2013-02-19 15:30:00,
2013-02-19 10:32:00,36.5,34.4,29.62,WSW,238,5.0,9.0,92,0.02,,---,0.35,VWS V14.01,2013-02-19 15:32:00,
2013-02-19 10:39:00,36.6,34.5,29.62,SSW,206,1.0,9.0,92,0.02,,---,0.35,VWS V14.01,2013-02-19 15:39:00,
2013-02-19 10:45:00,36.6,34.5,29.61,SW,221,4.0,11.0,92,0.02,,---,0.35,VWS V14.01,2013-02-19 15:45:00,
2013-02-19 10:51:00,36.7,34.6,29.61,WSW,257,4.0,11.0,92,0.02,,---,0.35,VWS V14.01,2013-02-19 15:51:00,
2013-02-19 10:57:00,36.7,34.6,29.61,SSW,202,3.0,12.0,92,0.02,,---,0.35,VWS V14.01,2013-02-19 15:57:00,
2013-02-19 11:00:00,37.0,34.9,29.60,SW,225,3.0,12.0,92,0.04,,---,0.37,VWS V14.01,2013-02-19 16:00:00,
2013-02-19 11:03:00,37.1,35.0,29.61,SW,226,3.0,12.0,92,0.03,,---,0.36,VWS V14.01,2013-02-19 16:03:00,
2013-02-19 11:09:00,37.1,35.0,29.60,WSW,249,2.0,12.0,92,0.03,,---,0.36,VWS V14.01,2013-02-19 16:09:00,
2013-02-19 11:15:00,37.3,35.2,29.61,South,169,5.0,12.0,92,0.03,,---,0.36,VWS V14.01,2013-02-19 16:15:00,
2013-02-19 11:30:00,37.4,35.3,29.60,SW,226,1.0,6.0,92,0.03,,---,0.36,VWS V14.01,2013-02-19 16:30:00,
2013-02-19 12:00:00,36.9,34.8,29.60,WSW,252,6.0,11.0,92,0.05,,---,0.39,VWS V14.01,2013-02-19 17:00:00,
2013-02-19 12:06:00,36.7,34.6,29.60,West,277,9.0,14.0,92,0.02,,---,0.39,VWS V14.01,2013-02-19 17:06:00,
2013-02-19 12:13:00,36.7,34.6,29.60,West,264,12.0,20.0,92,0.02,,---,0.39,VWS V14.01,2013-02-19 17:13:00,
2013-02-19 12:19:00,36.5,34.1,29.60,WNW,283,4.0,20.0,91,0.02,,---,0.39,VWS V14.01,2013-02-19 17:19:00,
2013-02-19 12:25:00,36.3,33.7,29.60,WNW,288,8.0,20.0,90,0.02,,---,0.39,VWS V14.01,2013-02-19 17:25:00,
2013-02-19 12:31:00,36.3,33.7,29.60,WNW,291,6.0,20.0,90,0.02,,---,0.39,VWS V14.01,2013-02-19 17:31:00,
2013-02-19 12:37:00,36.1,32.6,29.61,West,277,6.0,24.0,87,0.00,,---,0.39,VWS V14.01,2013-02-19 17:37:00,
2013-02-19 12:43:00,35.7,32.5,29.61,West,264,15.0,24.0,88,0.00,,---,0.39,VWS V14.01,2013-02-19 17:43:00,
2013-02-19 12:49:00,35.5,32.0,29.61,SW,236,10.0,24.0,87,0.00,,---,0.39,VWS V14.01,2013-02-19 17:49:00,
2013-02-19 12:55:00,35.6,31.2,29.61,SW,227,3.0,24.0,84,0.00,,---,0.39,VWS V14.01,2013-02-19 17:55:00,
2013-02-19 13:01:00,35.7,31.4,29.61,WNW,292,16.0,24.0,84,0.00,,---,0.39,VWS V14.01,2013-02-19 18:01:00,
2013-02-19 13:07:00,35.5,30.9,29.61,WSW,241,8.0,21.0,83,0.00,,---,0.39,VWS V14.01,2013-02-19 18:07:00,
2013-02-19 13:13:00,34.8,30.2,29.62,West,277,14.0,22.0,83,0.00,,---,0.39,VWS V14.01,2013-02-19 18:13:00,
2013-02-19 13:19:00,34.1,29.2,29.62,WSW,253,10.0,28.0,82,0.00,,---,0.39,VWS V14.01,2013-02-19 18:19:00,
2013-02-19 13:25:00,33.9,29.0,29.62,West,281,4.0,28.0,82,0.00,,---,0.39,VWS V14.01,2013-02-19 18:25:00,
2013-02-19 13:31:00,34.1,28.6,29.62,WSW,239,6.0,28.0,80,0.00,,---,0.39,VWS V14.01,2013-02-19 18:31:00,
2013-02-19 13:37:00,33.9,28.4,29.62,West,265,20.0,21.0,80,0.00,,---,0.39,VWS V14.01,2013-02-19 18:37:00,
2013-02-19 13:44:00,33.6,27.8,29.62,WSW,258,16.0,21.0,79,0.00,,---,0.39,VWS V14.01,2013-02-19 18:44:00,
2013-02-19 13:50:00,33.4,27.9,29.62,WSW,249,5.0,21.0,80,0.00,,---,0.39,VWS V14.01,2013-02-19 18:50:00,
2013-02-19 13:56:00,33.2,27.7,29.62,West,277,11.0,21.0,80,0.00,,---,0.39,VWS V14.01,2013-02-19 18:56:00,
2013-02-19 14:01:00,33.1,27.9,29.63,West,259,6.0,21.0,81,0.00,,---,0.39,VWS V14.01,2013-02-19 19:01:00,
2013-02-19 14:08:00,32.7,27.5,29.63,WSW,247,7.0,18.0,81,0.00,,---,0.39,VWS V14.01,2013-02-19 19:08:00,
2013-02-19 14:14:00,32.4,27.2,29.63,West,272,13.0,20.0,81,0.00,,---,0.39,VWS V14.01,2013-02-19 19:14:00,
2013-02-19 14:20:00,32.3,27.1,29.64,West,260,12.0,20.0,81,0.00,,---,0.39,VWS V14.01,2013-02-19 19:20:00,
2013-02-19 14:26:00,31.5,26.6,29.64,West,280,20.0,28.0,82,0.00,,---,0.39,VWS V14.01,2013-02-19 19:26:00,
2013-02-19 14:31:00,30.8,26.5,29.65,WNW,300,17.0,28.0,84,0.00,,---,0.39,VWS V14.01,2013-02-19 19:31:00,
2013-02-19 14:38:00,30.3,26.1,29.65,WNW,290,10.0,23.0,84,0.00,,---,0.39,VWS V14.01,2013-02-19 19:38:00,
2013-02-19 14:44:00,29.8,25.9,29.65,WNW,292,7.0,23.0,85,0.00,,---,0.39,VWS V14.01,2013-02-19 19:44:00,
2013-02-19 14:50:00,29.6,25.6,29.66,WNW,283,9.0,23.0,85,0.00,,---,0.39,VWS V14.01,2013-02-19 19:50:00,
2013-02-19 14:56:00,29.4,25.2,29.66,WSW,255,6.0,25.0,84,0.00,,---,0.39,VWS V14.01,2013-02-19 19:56:00,
2013-02-19 15:01:00,29.2,24.7,29.66,WNW,292,6.0,25.0,83,0.00,,---,0.39,VWS V14.01,2013-02-19 20:01:00,
2013-02-19 15:08:00,29.0,24.2,29.66,WSW,241,5.0,19.0,82,0.00,,---,0.39,VWS V14.01,2013-02-19 20:08:00,
2013-02-19 15:14:00,28.7,24.2,29.67,West,273,10.0,19.0,83,0.00,,---,0.39,VWS V14.01,2013-02-19 20:14:00,
2013-02-19 15:20:00,28.2,23.7,29.67,WNW,294,16.0,20.0,83,0.00,,---,0.39,VWS V14.01,2013-02-19 20:20:00,
2013-02-19 15:26:00,28.0,23.5,29.67,West,281,12.0,20.0,83,0.00,,---,0.39,VWS V14.01,2013-02-19 20:26:00,
2013-02-19 15:31:00,28.0,23.5,29.67,West,274,10.0,20.0,83,0.00,,---,0.39,VWS V14.01,2013-02-19 20:31:00,
2013-02-19 15:38:00,27.5,23.3,29.68,WNW,284,16.0,29.0,84,0.00,,---,0.39,VWS V14.01,2013-02-19 20:38:00,
2013-02-19 15:44:00,27.3,22.8,29.68,WSW,238,13.0,29.0,83,0.00,,---,0.39,VWS V14.01,2013-02-19 20:44:00,
2013-02-19 15:51:00,27.3,22.8,29.69,WSW,248,13.0,29.0,83,0.00,,---,0.39,VWS V14.01,2013-02-19 20:51:00,
2013-02-19 15:57:00,27.0,22.2,29.69,West,271,10.0,29.0,82,0.00,,---,0.39,VWS V14.01,2013-02-19 20:57:00,
2013-02-19 16:03:00,26.9,22.4,29.69,West,269,12.0,18.0,83,0.00,,---,0.39,VWS V14.01,2013-02-19 21:03:00,
2013-02-19 16:09:00,26.9,22.1,29.70,WNW,290,9.0,18.0,82,0.00,,---,0.39,VWS V14.01,2013-02-19 21:09:00,
2013-02-19 16:15:00,26.9,22.4,29.70,WNW,283,19.0,19.0,83,0.00,,---,0.39,VWS V14.01,2013-02-19 21:15:00,
2013-02-19 16:21:00,26.7,22.2,29.70,West,269,8.0,19.0,83,0.00,,---,0.39,VWS V14.01,2013-02-19 21:21:00,
2013-02-19 16:27:00,26.7,22.5,29.70,West,269,6.0,19.0,84,0.00,,---,0.39,VWS V14.01,2013-02-19 21:27:00,
2013-02-19 16:33:00,26.6,22.1,29.70,SW,227,6.0,10.0,83,0.00,,---,0.39,VWS V14.01,2013-02-19 21:33:00,
2013-02-19 16:39:00,26.8,22.0,29.71,SW,226,6.0,24.0,82,0.00,,---,0.39,VWS V14.01,2013-02-19 21:39:00,
2013-02-19 16:45:00,27.0,21.7,29.70,West,280,6.0,24.0,80,0.00,,---,0.39,VWS V14.01,2013-02-19 21:45:00,
2013-02-19 16:51:00,27.1,21.8,29.70,SSW,206,11.0,24.0,80,0.00,,---,0.39,VWS V14.01,2013-02-19 21:51:00,
2013-02-19 16:57:00,27.1,21.5,29.70,West,271,16.0,24.0,79,0.00,,---,0.39,VWS V14.01,2013-02-19 21:57:00,
2013-02-19 17:03:00,27.0,21.1,29.70,WSW,242,7.0,15.0,78,0.00,,---,0.39,VWS V14.01,2013-02-19 22:03:00,
2013-02-19 17:09:00,26.9,21.3,29.71,West,271,19.0,22.0,79,0.00,,---,0.39,VWS V14.01,2013-02-19 22:09:00,
2013-02-19 17:16:00,26.6,21.9,29.71,West,269,12.0,22.0,82,0.00,,---,0.39,VWS V14.01,2013-02-19 22:16:00,
2013-02-19 17:22:00,26.0,22.4,29.72,West,269,12.0,22.0,86,0.00,,---,0.39,VWS V14.01,2013-02-19 22:22:00,
2013-02-19 17:28:00,25.3,22.2,29.73,West,269,12.0,22.0,88,0.00,,---,0.39,VWS V14.01,2013-02-19 22:28:00,
2013-02-19 17:34:00,24.9,21.6,29.73,WNW,298,9.0,24.0,87,0.00,,---,0.39,VWS V14.01,2013-02-19 22:34:00,
2013-02-19 17:40:00,24.8,21.2,29.74,West,274,15.0,24.0,86,0.00,,---,0.39,VWS V14.01,2013-02-19 22:40:00,
2013-02-19 17:46:00,24.8,21.5,29.75,WSW,256,8.0,24.0,87,0.00,,---,0.39,VWS V14.01,2013-02-19 22:46:00,
2013-02-19 17:52:00,24.4,21.4,29.75,WNW,287,6.0,24.0,88,0.00,,---,0.39,VWS V14.01,2013-02-19 22:52:00,
2013-02-19 17:58:00,24.0,21.0,29.75,WSW,248,6.0,24.0,88,0.00,,---,0.39,VWS V14.01,2013-02-19 22:58:00,
2013-02-19 18:04:00,23.9,20.9,29.75,WNW,298,4.0,15.0,88,0.00,,---,0.39,VWS V14.01,2013-02-19 23:04:00,
2013-02-19 18:10:00,24.0,20.1,29.75,SW,223,8.0,17.0,85,0.00,,---,0.39,VWS V14.01,2013-02-19 23:10:00,
2013-02-19 18:16:00,24.2,20.1,29.76,WSW,238,10.0,17.0,84,0.00,,---,0.39,VWS V14.01,2013-02-19 23:16:00,
2013-02-19 18:22:00,24.3,19.6,29.76,WNW,284,16.0,20.0,82,0.00,,---,0.39,VWS V14.01,2013-02-19 23:22:00,
2013-02-19 18:28:00,24.3,19.0,29.76,West,267,7.0,24.0,80,0.00,,---,0.39,VWS V14.01,2013-02-19 23:28:00,
2013-02-19 18:34:00,24.3,19.0,29.76,West,277,12.0,18.0,80,0.00,,---,0.39,VWS V14.01,2013-02-19 23:34:00,
2013-02-19 18:40:00,24.2,19.2,29.77,SW,222,4.0,24.0,81,0.00,,---,0.39,VWS V14.01,2013-02-19 23:40:00,
2013-02-19 18:46:00,24.1,19.1,29.77,West,281,10.0,24.0,81,0.00,,---,0.39,VWS V14.01,2013-02-19 23:46:00,
2013-02-19 18:52:00,24.0,19.3,29.77,WNW,290,5.0,24.0,82,0.00,,---,0.39,VWS V14.01,2013-02-19 23:52:00,
2013-02-19 18:58:00,23.8,19.7,29.78,NW,310,8.0,24.0,84,0.00,,---,0.39,VWS V14.01,2013-02-19 23:58:00,
2013-02-19 19:04:00,23.7,19.9,29.78,WNW,303,7.0,14.0,85,0.00,,---,0.39,VWS V14.01,2013-02-20 00:04:00,
2013-02-19 19:10:00,23.3,20.0,29.78,WSW,254,8.0,18.0,87,0.00,,---,0.39,VWS V14.01,2013-02-20 00:10:00,
2013-02-19 19:17:00,23.0,19.7,29.78,West,267,12.0,18.0,87,0.00,,---,0.39,VWS V14.01,2013-02-20 00:17:00,
2013-02-19 19:23:00,22.9,19.6,29.78,WSW,248,6.0,18.0,87,0.00,,---,0.39,VWS V14.01,2013-02-20 00:23:00,
2013-02-19 19:29:00,22.8,19.2,29.78,WSW,252,7.0,19.0,86,0.00,,---,0.39,VWS V14.01,2013-02-20 00:29:00,
2013-02-19 19:35:00,22.8,19.2,29.78,WNW,292,6.0,15.0,86,0.00,,---,0.39,VWS V14.01,2013-02-20 00:35:00,
2013-02-19 19:41:00,22.7,19.1,29.78,West,277,7.0,18.0,86,0.00,,---,0.39,VWS V14.01,2013-02-20 00:41:00,
2013-02-19 19:47:00,22.6,19.3,29.79,SW,231,3.0,18.0,87,0.00,,---,0.39,VWS V14.01,2013-02-20 00:47:00,
2013-02-19 19:53:00,22.5,19.5,29.79,WNW,286,9.0,18.0,88,0.00,,---,0.39,VWS V14.01,2013-02-20 00:53:00,
2013-02-19 19:59:00,22.4,19.7,29.79,West,269,12.0,18.0,89,0.00,,---,0.39,VWS V14.01,2013-02-20 00:59:00,
2013-02-19 20:05:00,22.0,19.3,29.80,WNW,290,14.0,17.0,89,0.00,,---,0.39,VWS V14.01,2013-02-20 01:05:00,
2013-02-19 20:11:00,21.8,19.1,29.80,WNW,286,13.0,17.0,89,0.00,,---,0.39,VWS V14.01,2013-02-20 01:11:00,
2013-02-19 20:17:00,21.7,19.2,29.80,WNW,294,20.0,23.0,90,0.00,,---,0.39,VWS V14.01,2013-02-20 01:17:00,
2013-02-19 20:23:00,21.3,18.8,29.80,West,270,13.0,23.0,90,0.00,,---,0.39,VWS V14.01,2013-02-20 01:23:00,
2013-02-19 20:29:00,21.1,18.4,29.80,West,277,9.0,23.0,89,0.00,,---,0.39,VWS V14.01,2013-02-20 01:29:00,
2013-02-19 20:35:00,21.0,18.3,29.81,West,268,12.0,12.0,89,0.00,,---,0.39,VWS V14.01,2013-02-20 01:35:00,
2013-02-19 20:41:00,20.9,18.2,29.81,WSW,256,6.0,12.0,89,0.00,,---,0.39,VWS V14.01,2013-02-20 01:41:00,
2013-02-19 20:47:00,20.9,18.2,29.81,WSW,246,3.0,12.0,89,0.00,,---,0.39,VWS V14.01,2013-02-20 01:47:00,
2013-02-19 20:53:00,20.9,18.2,29.81,WSW,256,11.0,16.0,89,0.00,,---,0.39,VWS V14.01,2013-02-20 01:53:00,
2013-02-19 21:00:00,20.8,18.1,29.82,West,275,5.0,16.0,89,0.00,,---,0.39,VWS V14.01,2013-02-20 02:00:00,
2013-02-19 21:06:00,20.7,18.0,29.81,SW,232,4.0,18.0,89,0.00,,---,0.39,VWS V14.01,2013-02-20 02:06:00,
2013-02-19 21:12:00,20.5,17.8,29.81,WSW,248,10.0,20.0,89,0.00,,---,0.39,VWS V14.01,2013-02-20 02:12:00,
2013-02-19 21:18:00,20.4,17.7,29.81,WSW,246,5.0,20.0,89,0.00,,---,0.39,VWS V14.01,2013-02-20 02:18:00,
2013-02-19 21:24:00,20.4,17.7,29.81,West,263,15.0,20.0,89,0.00,,---,0.39,VWS V14.01,2013-02-20 02:24:00,
2013-02-19 21:30:00,20.2,17.2,29.81,WSW,242,12.0,20.0,88,0.00,,---,0.39,VWS V14.01,2013-02-20 02:30:00,
2013-02-19 21:36:00,20.0,17.0,29.81,WNW,294,8.0,13.0,88,0.00,,---,0.39,VWS V14.01,2013-02-20 02:36:00,
2013-02-19 21:42:00,20.0,16.8,29.82,WSW,254,6.0,15.0,87,0.00,,---,0.39,VWS V14.01,2013-02-20 02:42:00,
2013-02-19 21:48:00,19.8,16.6,29.82,West,281,8.0,15.0,87,0.00,,---,0.39,VWS V14.01,2013-02-20 02:48:00,
2013-02-19 21:54:00,19.7,16.5,29.82,WNW,290,11.0,20.0,87,0.00,,---,0.39,VWS V14.01,2013-02-20 02:54:00,
2013-02-19 22:00:00,19.5,16.5,29.82,SW,222,6.0,21.0,88,0.00,,---,0.39,VWS V14.01,2013-02-20 03:00:00,
2013-02-19 22:06:00,19.1,16.4,29.83,SW,236,11.0,18.0,89,0.00,,---,0.39,VWS V14.01,2013-02-20 03:06:00,
2013-02-19 22:12:00,18.7,15.7,29.84,WSW,256,4.0,18.0,88,0.00,,---,0.39,VWS V14.01,2013-02-20 03:12:00,
2013-02-19 22:18:00,18.1,15.1,29.83,WNW,299,9.0,21.0,88,0.00,,---,0.39,VWS V14.01,2013-02-20 03:18:00,
2013-02-19 22:24:00,17.8,14.9,29.84,WSW,251,16.0,21.0,88,0.00,,---,0.39,VWS V14.01,2013-02-20 03:24:00,
2013-02-19 22:30:00,17.5,14.6,29.84,West,263,9.0,23.0,88,0.00,,---,0.39,VWS V14.01,2013-02-20 03:30:00,
2013-02-19 22:37:00,17.3,14.4,29.85,WSW,252,7.0,19.0,88,0.00,,---,0.39,VWS V14.01,2013-02-20 03:37:00,
2013-02-19 22:43:00,17.0,14.1,29.85,West,270,11.0,19.0,88,0.00,,---,0.39,VWS V14.01,2013-02-20 03:43:00,
2013-02-19 22:49:00,16.8,13.6,29.84,West,278,11.0,19.0,87,0.00,,---,0.39,VWS V14.01,2013-02-20 03:49:00,
2013-02-19 22:55:00,16.7,13.2,29.85,WSW,258,9.0,20.0,86,0.00,,---,0.39,VWS V14.01,2013-02-20 03:55:00,
2013-02-19 23:01:00,16.6,12.9,29.84,SW,219,4.0,20.0,85,0.00,,---,0.39,VWS V14.01,2013-02-20 04:01:00,
2013-02-19 23:07:00,16.6,12.9,29.85,WNW,290,13.0,16.0,85,0.00,,---,0.39,VWS V14.01,2013-02-20 04:07:00,
2013-02-19 23:13:00,16.6,12.1,29.85,West,265,11.0,22.0,82,0.00,,---,0.39,VWS V14.01,2013-02-20 04:13:00,
2013-02-19 23:19:00,16.6,11.8,29.84,WSW,250,5.0,22.0,81,0.00,,---,0.39,VWS V14.01,2013-02-20 04:19:00,
2013-02-19 23:25:00,16.5,11.4,29.85,West,259,9.0,22.0,80,0.00,,---,0.39,VWS V14.01,2013-02-20 04:25:00,
2013-02-19 23:31:00,16.4,11.0,29.84,WNW,282,16.0,22.0,79,0.00,,---,0.39,VWS V14.01,2013-02-20 04:31:00,
2013-02-19 23:37:00,16.3,11.2,29.85,West,261,14.0,17.0,80,0.00,,---,0.39,VWS V14.01,2013-02-20 04:37:00,
2013-02-19 23:43:00,16.3,11.2,29.85,SSE,160,3.0,17.0,80,0.00,,---,0.39,VWS V14.01,2013-02-20 04:43:00,
2013-02-19 23:49:00,16.3,11.2,29.85,WNW,289,4.0,17.0,80,0.00,,---,0.39,VWS V14.01,2013-02-20 04:49:00,
2013-02-19 23:55:00,16.2,11.1,29.85,SW,235,5.0,17.0,80,0.00,,---,0.39,VWS V14.01,2013-02-20 04:55:00,